www.pogodaiklimat.ru

Погода и климат >> Архив погоды >> Франция >> Канны


ПОГОДА в Каннах

  • Прогноз погоды в Каннах
  • Монитор погоды в Каннах

АРХИВ ПОГОДЫ в Каннах

Время (UTC), дата Ветер
(напр.,м/с)
 
Видим.   Явления Облачность Т
(С)
Тd
(С)
f
(%)
Тe
(С)
Тes
(С)
Комфортность P
(гПа)
Po
(гПа)
Тmin
(С)
Tmax
(С)
R
(мм)
R24
(мм)
S
(см)
19 16.09 С 1-2
{2}
45 км н/о +21.8 +18.0 79 +26 +26 душно 1017.2 1016.7
20 16.09 С 1-2
{2}
45 км н/о +21.3 +18.1 82 +26 +26 душно 1017.3 1016.8
21 16.09 С 1-2
{2}
40 км н/о +20.5 +17.9 85 +25 +25 комфорт 1017.4 1016.9
22 16.09 С 1-2
{2}
45 км н/о +19.7 +17.3 86 +23 +23 комфорт 1017.4 1016.9
23 16.09 С 1-2
{2}
45 км н/о +19.1 +16.5 85 +22 +22 комфорт 1017.1 1016.6
00 17.09 С 1-2
{2}
45 км н/о +18.7 +16.3 86 +21 +21 комфорт 1016.9 1016.4
01 17.09 С 1-2
{2}
35 км н/о +18.1 +16.1 88 +19 +19 1016.7 1016.2
02 17.09 С 1-2
{2}
35 км н/о +17.9 +15.9 88 +19 +19 1016.2 1015.7
03 17.09 С 1-2
{2}
40 км н/о +17.8 +15.6 87 +19 +19 1016.0 1015.5
04 17.09 С 1-2
{2}
35 км н/о +17.7 +15.7 88 +19 +19 1016.1 1015.6
05 17.09 С 2-2
{2}
35 км н/о +17.9 +15.7 87 +19 +19 1016.2 1015.7
06 17.09 С 2
{5}
35 км н/о +18.2 +15.8 86 +19 +19 1016.3 1015.8 +17.5 +23.0
07 17.09 С 1-2
{3}
40 км н/о +20.6 +17.0 80 +25 +25 комфорт 1016.2 1015.7
08 17.09 С 1-1
{2}
29 км н/о +23.5 +18.8 75 +28 +28 душно 1016.5 1016.0
09 17.09 ЮВ 2-3
{3}
35 км 10/10 600 м
[]
+25.0 +19.1 70 +30 +30 душно 1016.7 1016.2
10 17.09 ЮВ 2-3
{3}
45 км 10/10 900 м
[]
+25.7 +19.1 67 +31 +31 очень
душно
1016.7 1016.2
11 17.09 ЮВ 2-3
{3}
30 км 9/9 800 м
[]
+25.0 +19.8 73 +31 +32 очень
душно
1016.4 1015.9
12 17.09 ЮВ 2-3
{3}
55 км 10/10 600 м
[]
+26.2 +20.8 72 +33 +33 очень
душно
1015.8 1015.3
13 17.09 ЮВ 2-3
{4}
40 км 10/10 960 м
[]
+25.5 +20.5 74 +32 +32 очень
душно
1015.4 1014.9
14 17.09 ЮВ 2-3
{4}
35 км н/о +25.5 +21.0 76 +32 +32 очень
душно
1014.9 1014.4
15 17.09 Ю 2-3
{3}
35 км н/о +24.7 +20.4 77 +31 +31 очень
душно
1014.4 1013.9
16 17.09 Ю 1-2
{3}
35 км 10/10 1170 м
[]
+24.1 +20.0 78 +30 +30 очень
душно
1014.4 1013.9
17 17.09 Ю 1-2
{2}
35 км 10/10 1080 м
[]
+23.6 +19.9 80 +29 +29 душно 1014.2 1013.7
18 17.09 Ю 1
{3}
10 км 10/10 1000 м
[]
+23.4 +19.8 80 +30 +30 очень
душно
1014.3 1013.8 +18.3 +26.9
19 17.09 ЮВ 1-1
{1}
35 км 10/10 570 м
[]
+23.5 +19.6 79 +29 +29 душно 1014.6 1014.1
20 17.09 С 1-1
{1}
26 км 10/10 960 м
[]
+23.0 +19.8 82 +30 +30 очень
душно
1014.5 1014.0
21 17.09 С 1-1
{1}
25 км 10/10 600 м
[]
+22.4 +19.6 84 +28 +28 душно 1014.3 1013.8
22 17.09 С 1-1
{1}
22 км 10/10 1020 м
[]
+22.0 +19.5 86 +28 +28 душно 1014.7 1014.2
23 17.09 С 1-1
{1}
21 км 10/10 600 м
[]
+21.9 +19.5 86 +27 +27 душно 1014.8 1014.3
00 18.09 СВ 1-1
{1}
21 км 10/10 1000 м
[]
+22.0 +19.4 85 +27 +27 душно 1014.9 1014.4
01 18.09 С 1-1
{1}
21 км 10/10 540 м
[]
+21.7 +19.4 87 +27 +27 душно 1014.7 1014.2
02 18.09 С 1-1
{1}
18 км 9/9 570 м
[]
+21.2 +19.3 89 +26 +26 душно 1014.4 1013.9
03 18.09 С 1-2
{2}
17 км 10/10 600 м
[]
+20.9 +19.2 90 +27 +27 душно 1014.1 1013.6
04 18.09 С 1-1
{2}
13 км н/о +20.0 +18.7 92 +25 +25 комфорт 1014.0 1013.5
05 18.09 С 1-2
{2}
12 км н/о +19.6 +18.4 93 +23 +23 комфорт 1013.9 1013.4
06 18.09 штиль 0
{4}
12 км н/о +19.7 +18.4 92 +22 +22 комфорт 1014.2 1013.7 +19.5 +23.5
07 18.09 СВ 1-2
{2}
14 км 8/8 630 м
[]
+20.9 +18.8 88 +26 +27 душно 1014.6 1014.1
08 18.09 С 1-1
{2}
17 км 10/10 570 м
[]
+23.0 +19.6 81 +30 +30 очень
душно
1015.3 1014.8
09 18.09 В 2-4
{4}
17 км н/о +25.5 +19.4 69 +31 +31 очень
душно
1015.3 1014.8
10 18.09 В 2 19 км 10/10 700 м
[]
+25.3 +20.1 73 +31 +31 очень
душно
1015.6 1015.1
11 18.09 ЮВ 2-3
{4}
40 км 9/9 750 м
[]
+25.6 +20.8 75 +32 +33 очень
душно
1015.6 1015.1
12 18.09 Ю 2-3
{4}
19 км н/о +25.5 +20.3 73 +31 +31 очень
душно
1015.6 1015.1
13 18.09 ЮВ 2-3
{4}
30 км н/о +25.2 +20.5 75 +31 +31 очень
душно
1015.5 1015.0
14 18.09 Ю 2-2
{3}
30 км н/о +24.3 +20.2 78 +30 +30 очень
душно
1015.4 1014.9
15 18.09 Ю 2-2
{3}
45 км н/о +24.2 +20.1 78 +30 +30 очень
душно
1014.9 1014.4
16 18.09 Ю 1 19 км 8/1 540 м
[]
+24.1 +20.2 79 +30 +31 очень
душно
1015.2 1014.7
17 18.09 Ю 1-1
{2}
30 км н/о +23.6 +19.7 79 +29 +29 душно 1015.2 1014.7
18 18.09 Ю 1
{3}
9000 м 10/0
[]
+22.9 +19.7 82 +29 +29 очень
душно
1015.1 1014.6 +19.7 +26.0
19 18.09 штиль 0
{1}
24 км 10/10
[]
+22.1 +18.7 81 +27 +27 душно 1015.3 1014.8
20 18.09 С 1-1
{1}
16 км н/о +21.2 +18.8 86 +26 +26 душно 1015.6 1015.1
21 18.09 С 1-1
{1}
15 км н/о +20.5 +18.6 89 +26 +26 душно 1016.0 1015.5
22 18.09 С 1-1
{1}
15 км н/о +20.1 +18.4 90 +25 +25 комфорт 1016.0 1015.5
23 18.09 С 1-1
{1}
14 км 10/10 1140 м
[]
+20.0 +18.7 92 +25 +25 комфорт 1015.9 1015.4
00 19.09 С 1-1
{1}
12 км н/о +19.6 +18.3 92 +24 +24 комфорт 1015.8 1015.3
01 19.09 С 1-1
{1}
10 км 8/8 1020 м
[]
+19.5 +18.3 93 +23 +23 комфорт 1015.3 1014.8
02 19.09 С 1-1
{2}
9000 м н/о +19.2 +18.2 94 +23 +23 комфорт 1015.1 1014.6
03 19.09 С 1-2
{2}
8000 м н/о +18.7 +17.9 95 +21 +21 комфорт 1015.0 1014.5
04 19.09 С 1-1
{2}
10 км н/о +18.5 +17.7 95 +20 +20 1015.0 1014.5
05 19.09 С 1-1
{2}
10 км 10/10 450 м
[]
+18.7 +17.7 94 +21 +21 комфорт 1015.4 1014.9
06 19.09 С 1
{4}
12 км н/о +19.3 +18.0 92 +23 +23 комфорт 1015.8 1015.3 +18.5 +23.0
07 19.09 С 1-1
{2}
17 км н/о +20.8 +18.2 85 +26 +26 душно 1016.2 1015.7
08 19.09 СЗ 1-1
{2}
19 км н/о +23.0 +19.0 78 +29 +29 очень
душно
1016.8 1016.3
09 19.09 Ю 1-2
{2}
19 км 10/10 600 м
[]
+24.9 +19.9 74 +30 +30 душно 1017.0 1016.5
10 19.09 Ю 2-3
{3}
19 км н/о +25.5 +19.6 70 +31 +31 очень
душно
1017.2 1016.7
11 19.09 Ю 2-3
{3}
18 км н/о +25.5 +20.5 74 +32 +32 очень
душно
1017.2 1016.7
12 19.09 Ю 2-3
{4}
18 км н/о +25.8 +20.4 72 +32 +32 очень
душно
1016.6 1016.1
13 19.09 Ю 2-2
{4}
30 км н/о +25.1 +20.1 74 +31 +31 очень
душно
1016.9 1016.4
14 19.09 Ю 1-2
{3}
30 км н/о +24.2 +19.5 75 +29 +29 душно 1016.6 1016.1
15 19.09 Ю 2-2
{2}
40 км н/о +23.9 +19.8 78 +29 +29 душно 1016.5 1016.0
16 19.09 Ю 1-2
{2}
30 км н/о +23.9 +19.4 76 +29 +29 душно 1016.6 1016.1
17 19.09 Ю 1-1
{2}
30 км н/о +23.4 +19.3 78 +30 +30 очень
душно
1016.8 1016.3
18 19.09 штиль 0
{2}
18 км 10/0
[]
+22.9 +19.5 81 +29 +29 очень
душно
1017.4 1016.9 +19.2 +26.4
19 19.09 С 1 18 км 9/3 1020 м
[]
+21.6 +19.2 86 +27 +27 душно 1018.3 1017.8
20 19.09 С 1-1
{1}
18 км н/о +20.8 +18.6 87 +26 +26 душно 1018.9 1018.4
21 19.09 СЗ 1-1
{1}
18 км н/о +20.1 +18.2 89 +25 +25 комфорт 1019.3 1018.8
22 19.09 С 1-1
{1}
12 км н/о +19.3 +18.1 93 +23 +23 комфорт 1019.6 1019.1
23 19.09 С 1-1
{1}
11 км 9/9 2000 м
[]
+18.9 +17.7 93 +22 +22 комфорт 1020.0 1019.5
00 20.09 С 1-2
{2}
13 км н/о +18.7 +17.7 94 +21 +21 комфорт 1020.2 1019.7
01 20.09 С 1-2
{2}
13 км н/о +18.1 +17.1 94 +19 +19 1019.9 1019.4
02 20.09 С 1-1
{1}
17 км н/о +17.9 +16.8 93 +20 +20 1019.9 1019.4
03 20.09 С 1-2
{2}
16 км н/о +17.7 +16.6 93 +19 +19 1020.0 1019.5
04 20.09 С 1-2
{2}
18 км 9/9 840 м
[]
+17.8 +16.5 92 +19 +19 1020.0 1019.5
05 20.09 С 1-2
{2}
19 км н/о +17.9 +16.2 90 +19 +19 1020.2 1019.7
06 20.09 С 1
{3}
18 км н/о +18.1 +16.3 89 +20 +20 1020.3 1019.8 +17.6 +22.9
07 20.09 С 1-2
{2}
19 км н/о +20.6 +17.0 80 +25 +25 комфорт 1021.1 1020.6
08 20.09 В 1-2
{2}
45 км 10/10 1050 м
[]
+23.8 +16.1 62 +27 +27 жарко 1021.9 1021.4
09 20.09 В 2-3
{4}
60 км н/о +24.4 +14.5 54 +27 +27 жарко 1022.1 1021.6
10 20.09 ЮВ 2-3
{4}
55 км н/о +25.0 +14.8 53 +28 +28 жарко 1022.1 1021.6
11 20.09 ЮВ 2-4
{4}
45 км н/о +25.0 +14.8 53 +28 +28 жарко 1022.2 1021.7
12 20.09 ЮВ 3-4
{4}
40 км н/о +25.5 +13.4 47 +28 +28 жарко 1022.1 1021.6
13 20.09 ЮВ 3-6
{6}
19 км н/о +25.2 +11.4 42 +27 +27 жарко 1021.8 1021.3
14 20.09 ЮВ 3-4
{5}
45 км н/о +25.1 +12.0 44 +27 +27 жарко 1021.6 1021.1
15 20.09 ЮВ 2-5
{5}
60 км н/о +24.8 +13.4 49 +27 +27 жарко 1021.2 1020.7
16 20.09 В 2-3
{4}
60 км н/о +24.6 +13.2 49 +27 +27 жарко 1020.8 1020.3
17 20.09 В 1-3
{4}
60 км н/о +23.6 +12.6 50 +26 +26 жарко 1020.7 1020.2
18 20.09 В 1-1
{2}
9000 м н/о +22.5 +13.6 57 +26 +26 жарко 1020.8 1020.3 +18.1 +25.7
19 20.09 С 1-2
{2}
50 км н/о +20.0 +13.9 68 +23 +23 комфорт 1021.2 1020.7
20 20.09 С 1-2
{2}
60 км н/о +18.8 +13.9 73 +21 +21 комфорт 1021.6 1021.1
21 20.09 С 1-2
{2}
60 км н/о +18.0 +13.7 76 +19 +19 1021.5 1021.0
22 20.09 С 1-2
{2}
60 км н/о +17.2 +13.5 79 +18 +18 1021.4 1020.9
23 20.09 С 1-2
{2}
60 км н/о +16.8 +13.5 81 +18 +18 1021.2 1020.7
00 21.09 С 1-2
{2}
60 км н/о +16.0 +13.1 83 +17 +17 1021.4 1020.9
01 21.09 С 1-2
{2}
60 км н/о +16.0 +12.7 81 +17 +17 1021.2 1020.7
02 21.09 С 1-2
{2}
60 км н/о +15.5 +12.4 82 +16 +16 1020.8 1020.3
03 21.09 С 1-2
{2}
60 км н/о +14.9 +12.0 83 +15 +15 1020.9 1020.4
04 21.09 С 1-2
{2}
60 км н/о +15.0 +11.9 82 +15 +15 1021.1 1020.6
05 21.09 С 1-2
{3}
60 км н/о +14.7 +12.0 84 +15 +15 1020.9 1020.4
06 21.09 С 2
{5}
55 км н/о +15.1 +11.9 81 +15 +15 1020.7 1020.2 +14.7 +22.5
07 21.09 С 1-2
{2}
60 км н/о +16.7 +12.8 78 +18 +18 1021.2 1020.7
08 21.09 С 1-1
{2}
45 км н/о +20.2 +14.6 70 +24 +24 комфорт 1021.3 1020.8
09 21.09 В 2-4
{4}
45 км н/о +22.7 +13.7 57 +26 +26 жарко 1021.4 1020.9
10 21.09 ЮВ 2 50 км 8/8 2000 м
[]
+22.5 +13.8 58 +26 +28 жарко 1022.2 1021.7
11 21.09 В 2 50 км н/о +22.4 +12.9 55 +25 +25 комфорт 1021.7 1021.2
12 21.09 В 1-2
{3}
55 км 10/10 1500 м
[]
+22.3 +13.4 57 +25 +25 комфорт 1021.1 1020.6
13 21.09 В 2-3
{3}
55 км 8/8 1500 м
[]
+22.9 +13.7 56 +26 +28 жарко 1019.7 1019.2
14 21.09 В 2-4
{4}
55 км 10/10 1500 м
[]
+22.6 +13.1 55 +26 +26 жарко 1019.5 1019.0
15 21.09 В 2-3
{4}
60 км 10/10 1500 м
[]
+22.3 +13.1 56 +25 +25 комфорт 1019.3 1018.8 0.0
16 21.09 В 2-5
{5}
35 км слаб. дождь 10/10 1500 м
[]
+22.1 +12.9 56 +25 +25 комфорт 1018.8 1018.3 0.0
17 21.09 В 1-3
{4}
40 км слаб. дождь 10/10 1470 м
[]
+20.8 +13.2 62 +24 +24 комфорт 1018.9 1018.4 0.0
18 21.09 С 1
{5}
18 км слаб. дождь 10/10 1500 м
[]
+19.0 +15.7 81 +21 +21 комфорт 1017.5 1017.0 +15.1 +23.3 0.6
19 21.09 штиль 0-1
{2}
12 км слаб. дождь 10/10
[]
+18.4 +16.0 86 +19 +19 1017.8 1017.3 1
20 21.09 С 1-1
{1}
7000 м дождь 10/10
[]
+17.7 +16.4 92 +19 +19 1017.8 1017.3 3
21 21.09 З 1
{2}
6000 м дождь 10/10 1500 м
[]
+17.7 +16.6 93 +19 +19 1018.6 1018.1 5
22 21.09 С 1 7000 м слаб. дождь 10/8 1200 м
[]
+17.8 +16.7 93 +19 +19 1017.8 1017.3 3
23 21.09 С 1-2
{2}
29 км слаб. дождь 10/3 900 м
[]
+17.9 +16.4 91 +19 +19 1016.4 1015.9 0.8
00 22.09 С 1-2
{3}
35 км слаб. дождь 10/0
[]
+18.4 +16.6 89 +21 +21 комфорт 1015.7 1015.2 4
01 22.09 З 1-1
{2}
35 км 10/10
[]
+18.9 +17.0 89 +22 +22 комфорт 1015.0 1014.5 0.2
02 22.09 ЮЗ 1-2
{2}
35 км 10/10 2000 м
[]
+19.2 +17.5 90 +23 +23 комфорт 1014.5 1014.0
03 22.09 С 1-1
{1}
15 км слаб. дождь 10/0 2000 м
[]
+18.7 +17.7 94 +21 +21 комфорт 1014.3 1013.8 0.2
04 22.09 С 1-2
{2}
17 км 10/10 2000 м
[]
+18.5 +17.8 96 +20 +20 1014.2 1013.7 0.2
05 22.09 С 1-3
{3}
19 км 10/10 1500 м
[]
+18.7 +17.7 94 +21 +21 комфорт 1014.1 1013.6
06 22.09 С 1
{4}
50 км н/о +19.2 +16.8 86 +22 +22 комфорт 1014.0 1013.5 +17.6 +19.6 0.2
07 22.09 З 1 60 км 8/8 1500 м
[]
+19.9 +17.7 87 +24 +25 комфорт 1014.4 1013.9 0.2
08 22.09 ЮВ 1 3000 м дождь 10/1 1260 м
[]
+19.5 +16.9 85 +23 +25 комфорт 1015.2 1014.7 2
09 22.09 В 1
{7}
3100 м дождь 10/10 300 м
[]
+18.6 +16.7 89 +21 +21 комфорт 1015.9 1015.4 6
10 22.09 СВ 2-2
{3}
45 км 10/9 1020 м
[]
+19.0 +16.4 85 +21 +22 комфорт 1015.1 1014.6 0.2
11 22.09 СВ 1-1
{4}
55 км 10/1 1260 м
[]
+20.1 +17.1 83 +25 +31 комфорт 1014.7 1014.2
12 22.09 СВ 1-2
{2}
60 км 10/10 600 м
[]
+21.7 +16.9 74 +26 +26 душно 1014.4 1013.9 0.2
13 22.09 ЮВ 1-1
{2}
15 км 10/10 660 м
[]
+21.4 +17.8 80 +26 +26 душно 1014.1 1013.6 0.0
14 22.09 СВ 1-2
{2}
19 км 10/10 480 м
[]
+20.2 +18.0 87 +25 +25 комфорт 1013.8 1013.3 0.6
15 22.09 С 1-2
{2}
55 км 10/10 300 м
[]
+20.4 +18.5 89 +26 +26 душно 1013.8 1013.3 0.6
16 22.09 СЗ 1-1
{1}
60 км 10/10 1000 м
[]
+20.7 +18.1 85 +26 +26 душно 1013.3 1012.8
17 22.09 ЮЗ 1-1
{1}
60 км 10/10 930 м
[]
+20.7 +18.5 87 +26 +26 душно 1013.3 1012.8
18 22.09 З 1
{2}
60 км 10/10 600 м
[]
+20.6 +18.4 87 +26 +26 душно 1013.3 1012.8 +18.6 +21.9
19 22.09 С 1-1
{1}
55 км 10/10 480 м
[]
+20.3 +18.6 90 +25 +25 комфорт 1013.6 1013.1
20 22.09 штиль 0-1
{1}
35 км 10/10 450 м
[]
+20.0 +18.8 93 +23 +23 комфорт 1014.1 1013.6
21 22.09 СВ 1
{2}
35 км 10/10 600 м
[]
+19.8 +18.8 94 +24 +24 комфорт 1013.7 1013.2
22 22.09 С 1-1
{1}
30 км 10/10 1140 м
[]
+19.4 +18.6 95 +23 +23 комфорт 1014.0 1013.5
23 22.09 С 1 30 км 10/6 960 м
[]
+19.3 +18.5 95 +23 +23 комфорт 1013.4 1012.9
00 23.09 С 1-1
{1}
18 км 10/10 600 м
[]
+19.3 +18.5 95 +23 +23 комфорт 1013.7 1013.2
01 23.09 С 1 1700 м дождь 10/8 500 м
[]
+18.6 +17.9 96 +21 +21 комфорт 1014.0 1013.5 9
02 23.09 С 1-1
{2}
19 км 10/9 600 м
[]
+18.4 +17.9 97 +21 +21 комфорт 1013.7 1013.2 0.4
03 23.09 Ю 1-1
{1}
16 км 10/10 300 м
[]
+18.4 +17.9 97 +21 +21 комфорт 1012.9 1012.4 9
04 23.09 С 1-2
{2}
14 км 10/10 60 м
[]
+18.1 +17.6 97 +19 +19 1013.3 1012.8
05 23.09 С 1-1
{2}
30 км 10/10 420 м
[]
+18.1 +17.6 97 +20 +20 1013.4 1012.9
06 23.09 Ю 1
{2}
10 км 10/10 300 м
[]
+18.3 +18.0 98 +20 +20 1013.5 1013.0 +18.0 +20.6 0.0
07 23.09 ЮЗ 1-2
{3}
60 км 9/9 930 м
[]
+19.3 +18.1 93 +22 +23 комфорт 1013.4 1012.9
08 23.09 С 1-2
{3}
55 км н/о +20.9 +18.7 87 +26 +26 душно 1013.1 1012.6
09 23.09 З 1-3
{3}
25 км н/о +21.4 +17.0 76 +25 +25 комфорт 1012.7 1012.2
10 23.09 ЮЗ 2-3
{4}
11 км н/о +22.2 +16.2 69 +26 +26 душно 1011.8 1011.3
11 23.09 ЮЗ 3-4
{4}
12 км н/о +23.9 +15.7 60 +27 +27 жарко 1010.6 1010.1
12 23.09 ЮЗ 3-6
{6}
21 км н/о +25.3 +15.3 54 +28 +28 жарко 1009.7 1009.2
13 23.09 З 4-7
{7}
20 км н/о +26.1 +12.9 44 +28 +28 жарко 1009.4 1008.9
14 23.09 В 2-4
{7}
19 км н/о +25.6 +16.2 56 +29 +29 душно 1010.1 1009.6
15 23.09 В 2-3
{4}
55 км н/о +24.3 +15.2 57 +27 +27 жарко 1010.8 1010.3
16 23.09 С 1-2
{3}
60 км 9/9
[]
+23.0 +16.3 66 +28 +28 душно 1011.2 1010.7
17 23.09 С 1-2
{2}
60 км н/о +22.4 +15.3 64 +26 +26 жарко 1011.7 1011.2
18 23.09 С 1-1
{2}
60 км н/о +20.9 +15.9 73 +26 +26 душно 1011.9 1011.4 +18.4 +27.6
19 23.09 С 1-1
{1}
60 км н/о +19.1 +16.1 83 +22 +22 комфорт 1012.5 1012.0

 

Местоположение метеостанции Канны (Франция): широта 43.53 долгота 6.95 высота над уровнем моря 8 м.

В архиве по умолчанию представлена погода в Каннах за последнюю неделю. Архивные данные за месяц целиком и за предыдущие месяцы, начиная с января 2011 года, Вы можете получить, выбрав интересующий диапазон дат из раскрывающегося списка и нажав кнопку "Ввод!".


*Определитесь, кто Вы:
робот инопланетянин человек

Внимание! Время в таблицах - всемирное. Для получения местного времени необходимо прибавить поправку, которая равна 1 ч.

Смотрите также архив погоды в соседних городах и на ближайших метеорологических станциях:

Погода в Антибе (Франция) (15 км)
Погода в Ницце (Франция) (24 км)
Погода на Мысе Камара (Франция) (43 км)
Погода в Ле-Люке (Франция) (49 км)
Погода на Острове Леван (Франция) (68 км)
Погода в Йере (Франция) (80 км)
Погода на Монте Маланотте (Италия) (88 км)
Погода в Тулоне (Франция) (95 км)
Погода на Мысе Кере (Франция) (97 км)
Погода в Шато-Арну-Сент-Обане (Франция) (97 км)

Пояснения к столбцам:

Ветер - указаны скорость ветра в м/с - средняя за 10 мин, порывы в срок и между сроками (в фигурных скобках) и направление, откуда дует ветер: С - северный, СВ - северо-восточный, В - восточный, ЮВ - юго-восточный, Ю - южный, ЮЗ - юго-западный, З - западный, СЗ - северо-западный.
Видимость - горизонтальная дальность видимости в метрах или километрах. При видимости от 1 до 10 км при отсутствии осадков обычно наблюдается дымка, при ухудшении видимости до 1 км и менее - туман. В сухую погоду видимость может ухудшаться дымом, пылью или мглою.
Явления - указаны атмосферные явления, наблюдавшиеся в срок или в последний час перед сроком; фигурными скобками обозначены явления, наблюдавшиеся между сроками (за 1-3 часа до срока); квадратными скобками обозначены град или гололедные отложения с указанием их диаметра в мм.
Облачность - указаны через наклонную черту общая и нижняя облачность в баллах и высота нижней границы облаков в метрах; квадратными скобками обозначены формы облаков: Ci - перистые, Cs - перисто-слоистые, Cc - перисто-кучевые, Ac - высококучевые, As - высокослоистые, Sc - слоисто-кучевые, Ns - слоисто-дождевые, Cu - кучевые, Cb - кучево-дождевые. Подробнее классификацию облаков см. в Атласе облаков (PDF).
T - Температура воздуха - температура, измеренная на высоте 2 м над землей.
Td - Температура точки росы - температура, при понижении до которой содержащийся в воздухе водяной пар достигнет насыщения.
f - Относительная влажность воздуха - влажноcть воздуха, измеренная на высоте 2 м над землей.
Te - Эффективная температура - температура, которую ощущает одетый по сезону человек в тени. Характеристика душности погоды. При расчете учитывается влияние влажности воздуха и скорости ветра на теплоощущения человека.
Tes - Эффективная температура на солнце - температура, которую ощущает человек, с поправкой на солнечный нагрев. Характеристика знойности погоды. Зависит от высоты солнца над горизонтом, облачности и скорости ветра. Ночью, в пасмурную погоду, а также при ветре 12 м/с и более поправка равна нулю.
P - Атмосферное давление - приведенное к уровню моря атмосферное давление.
Po - Атмосферное давление - измеренное на уровне метеостанции атмосферное давление.
Tmin - Минимальная температура - минимум температуры воздуха на высоте 2 м над землей.
Tmax - Максимальная температура - максимум температуры воздуха на высоте 2 м над землей.
R - Количество осадков - Количество выпавших осадков за период времени, мм. При наведении курсора мыши на число - период времени, за который выпало указанное количество осадков.
R24 - Количество осадков - Количество выпавших осадков за 24 часа, мм.
S - Снежный покров - Высота снежного покрова, см. При наведении курсора мыши на число - состояние снежного покрова и степень покрытия местности в баллах.